Temperature
13 13 13 13 13 13 12 12 12 12 12 12 12 12 12 12 12 12 12 12 12 12 12 12 12 12 12 12 12 12 12 12 12 12 12 12 12 12 12 12 12 12 12
13 13 13 12 12 12 12 12 12 12 12 12 12 12 12 11 11 11 11 12 12 12 12 12 12 12 12 12 12 12 12 12 12 12 12 12 12 12 12 12 12 12 12
12 12 12 12 12 12 12 12 12 12 12 12 11 11 11 11 11 11 11 11 11 11 11 12 12 11 11 11 11 11 11 11 11 11 11 11 11 11 11 12 11 12 11
12 12 12 12 12 12 12 12 12 12 11 11 11 11 11 11 11 11 11 11 11 11 11 11 11 11 11 11 11 11 11 11 11 11 11 11 11 11 11 11 11 11 11
12 12 12 12 12 12 11 11 11 11 11 11 11 11 11 11 11 11 11 11 11 11 11 10 10 10 10 10 10 10 10 10 11 11 11 11 11 11 11 11 11 11 11
12 12 12 12 11 11 11 11 11 11 11 11 11 11 10 10 10 10 10 10 10 10 10 10 10 10 10 10 10 10 10 10 10 10 10 10 10 10 10 11 10 10 10
11 11 11 11 11 11 11 11 11 11 11 11 11 10 10 10 10 10 10 10 10 10 10 10 10 10 10 10 10 10 10 10 10 10 10 10 10 10 10 10 10 10 10
11 11 11 11 11 11 10 10 10 10 10 10 10 10 10 10 10 10 10 10 9 9 9 9 9 9 9 9 9 9 9 9 9 10 10 10 9 9 9 10 10 10 10
11 11 11 11 10 10 10 10 10 10 10 10 9 9 9 9 9 9 9 9 9 9 9 9 9 9 9 9 9 9 9 9 9 9 9 9 9 9 9 9 9 9 9
10 10 10 10 10 10 10 10 10 10 9 9 9 9 8 8 8 8 9 9 9 9 8 8 9 8 8 8 8 9 9 9 9 9 9 9 9 9 9 9 9 9 9
10 10 10 10 10 10 10 9 9 9 9 9 9 8 8 8 8 8 8 8 8 8 8 8 8 8 8 8 8 8 8 8 8 8 8 8 8 8 8 8 8 8 8
9 9 9 9 9 9 9 9 9 9 9 8 8 8 8 8 7 7 7 7 8 8 8 8 8 8 8 8 8 8 8 8 8 8 8 8 8 8 8 8 8 8 8
9 9 9 9 9 9 9 8 8 8 8 8 8 8 8 8 7 7 7 7 7 7 7 8 8 8 7 7 7 7 7 7 7 7 7 7 7 7 7 7 7 7 7
8 8 8 8 8 8 8 8 8 8 8 8 8 7 7 7 7 7 7 6 6 6 7 7 7 7 7 7 7 7 7 7 7 7 7 7 7 7 6 6 6 6 6
8 8 8 8 8 8 8 8 8 8 7 7 7 7 7 7 7 7 6 6 6 5 6 6 6 7 7 6 6 6 6 6 6 6 6 6 6 6 6 6 6 6 6
8 8 8 8 7 7 7 7 7 7 7 7 7 7 7 6 6 6 6 6 5 5 5 5 5 6 6 6 6 6 6 6 6 6 6 6 6 6 6 6 6 6 5
7 7 7 7 7 7 7 7 6 6 6 6 6 6 6 6 6 6 6 6 5 5 5 5 5 5 5 5 5 5 5 5 5 5 5 5 5 5 5 5 5 5 5
7 7 7 7 6 6 6 6 6 6 6 6 6 6 6 5 5 5 5 5 5 4 4 4 4 4 4 4 5 5 4 4 4 4 4 4 4 4 4 4 4 4 4
6 6 6 6 6 6 6 5 5 5 5 5 5 5 5 5 5 5 4 4 4 4 3 3 4 4 4 4 4 4 4 4 4 4 4 4 4 4 4 4 4 4 4
6 6 6 6 6 5 5 5 5 5 5 5 5 4 4 4 4 4 4 4 3 3 3 3 3 3 3 3 3 3 4 3 3 3 3 3 3 3 3 3 3 3 3
6 5 5 5 5 5 5 4 4 4 4 4 4 4 4 4 3 3 3 3 3 3 3 2 2 2 3 3 3 3 3 3 3 3 3 3 3 3 3 3 3 3 3
5 5 5 5 4 4 4 4 4 4 4 4 4 3 3 3 3 3 3 3 2 2 2 2 2 2 2 2 2 2 2 2 2 2 2 3 2 2 2 2 2 2 2
4 4 4 4 4 4 4 4 4 4 3 3 3 3 3 3 2 2 2 2 2 2 2 2 1 2 2 2 1 1 1 1 1 1 1 2 2 2 2 2 2 2 2
4 4 4 4 4 4 4 4 3 3 3 3 3 3 3 2 2 2 2 2 2 2 1 1 1 1 1 1 1 1 1 1 1 1 1 1 2 2 2 2 2 1 1
4 4 3 3 3 3 3 3 3 3 3 3 3 3 2 2 2 1 1 1 1 1 1 1 1 1 1 1 0 0 0 0 0 1 0 0 1 1 1 2 1 1 1
3 3 3 3 3 3 3 2 2 2 2 2 2 2 2 2 1 1 1 1 1 1 1 1 1 1 1 0 0 -0 -0 -1 -1 -1 -0 -0 -0 -0 0 1 1 1 1
Wind_Speed
1 1 1 1 1 1 1 2 2 1 2 2 2 2 2 2 1 1 1 1 1 1 3 4 5 5 6 5 5 5 6 6 6 7 7 7 7 7 8 8 8 8 9
2 1 1 1 1 2 3 3 3 2 1 1 2 2 2 2 1 1 2 1 1 1 2 3 4 4 4 4 4 4 5 6 6 6 6 7 7 8 8 8 8 8 9
2 1 1 0 1 2 3 3 3 2 2 2 2 2 2 2 2 1 1 1 1 1 1 3 3 4 3 4 4 4 4 5 5 6 6 7 7 8 8 8 8 8 9
2 1 1 0 1 1 2 1 1 2 2 2 2 2 2 2 1 1 1 1 1 1 0 2 3 3 3 4 5 4 4 4 5 6 6 7 7 8 8 8 8 8 9
2 2 1 0 1 1 1 1 1 1 1 2 2 2 1 1 1 1 0 2 2 2 1 0 1 2 2 3 4 5 5 5 5 6 6 6 7 8 8 8 9 9 9
3 3 1 1 2 1 0 1 2 2 1 1 2 2 2 2 1 1 0 2 2 1 1 1 0 1 2 3 4 6 7 7 7 7 7 8 8 9 9 9 9 9 9
2 2 2 2 2 1 1 1 1 2 1 1 1 2 2 2 2 1 0 0 1 1 1 2 1 1 1 2 4 6 7 8 8 8 8 8 8 9 9 9 9 9 9
2 2 2 1 1 1 1 1 1 1 1 1 0 1 2 2 1 1 1 0 0 1 1 2 2 1 1 1 3 5 7 8 9 9 8 8 8 8 9 9 9 9 8
2 2 2 1 1 1 1 1 1 1 1 1 1 0 0 2 2 1 2 1 1 0 0 0 1 1 1 0 1 4 6 8 9 9 9 8 8 8 9 8 8 9 9
2 2 1 1 1 1 1 1 1 1 1 1 1 1 1 1 1 2 2 1 1 1 1 1 1 1 0 1 1 3 5 7 8 9 10 9 9 9 9 9 9 8 8
2 2 1 1 1 1 1 1 1 1 1 1 1 1 2 2 2 2 4 3 2 2 1 1 1 0 0 0 0 2 4 6 8 9 9 10 10 10 8 8 8 7 7
1 1 1 0 0 0 1 1 1 1 1 1 2 1 1 1 2 2 3 4 3 3 2 2 1 1 1 1 1 2 4 6 7 9 9 10 10 9 8 8 8 7 6
0 1 0 0 0 1 1 1 1 1 1 2 2 2 2 2 2 2 3 4 4 3 2 2 2 1 1 1 1 3 4 6 7 8 9 9 9 9 8 8 8 8 7
1 1 0 0 1 1 1 1 1 1 1 2 2 2 2 2 2 2 2 2 4 4 2 3 1 1 1 0 2 3 4 6 7 8 9 9 9 9 8 8 8 8 7
1 1 1 1 2 1 1 1 1 2 1 2 2 2 2 2 1 2 2 2 3 4 4 2 1 1 0 1 2 3 4 6 7 8 9 9 8 8 8 8 7 7 7
1 2 2 2 2 2 2 2 2 2 2 2 2 2 2 2 2 2 2 2 2 4 5 3 2 2 2 2 3 4 5 7 8 9 9 9 8 8 8 8 8 7 7
2 3 3 3 3 3 3 2 3 3 3 3 3 3 4 3 2 2 2 2 3 3 5 5 3 2 2 2 3 3 5 5 6 8 9 9 9 8 8 8 8 7 7
3 3 3 3 4 3 3 3 4 4 4 4 4 4 4 3 3 3 2 3 3 3 4 7 5 3 3 3 2 3 4 5 5 8 9 9 10 10 9 9 8 7 7
4 3 3 4 4 4 4 4 4 4 4 5 4 4 4 4 4 3 3 3 4 4 4 5 5 3 3 2 2 3 3 3 5 7 8 9 10 10 10 9 8 8 8
4 4 4 4 4 4 4 4 4 4 4 5 5 5 5 5 5 4 4 4 4 4 4 4 5 4 3 3 2 3 3 3 4 4 6 7 9 10 10 10 9 9 8
5 4 4 5 5 4 4 4 4 4 5 5 5 5 5 6 6 5 4 4 4 3 4 4 5 4 3 3 3 2 3 4 4 3 2 4 5 5 7 9 9 8 8
5 5 5 5 5 5 6 7 5 5 5 6 6 5 5 6 7 7 8 7 6 5 5 5 5 5 6 4 3 2 2 3 4 2 2 4 3 4 5 6 7 8 8
5 5 5 5 6 6 8 9 8 6 6 6 6 6 5 5 6 5 7 8 8 10 9 6 6 7 6 4 3 3 4 4 5 3 2 4 3 4 4 6 8 8 8
5 5 6 6 6 7 9 9 9 7 6 7 7 7 6 6 6 6 6 6 6 7 8 7 7 7 6 4 4 4 4 4 5 3 2 4 3 3 4 5 8 8 8
5 5 6 6 7 7 9 10 8 5 6 7 7 7 7 7 9 9 6 6 7 6 8 10 10 9 9 8 5 2 3 3 4 3 2 2 2 3 3 3 5 6 7
6 5 6 6 7 7 9 10 9 5 6 6 6 6 9 9 10 9 7 6 8 7 5 5 6 7 7 7 8 5 4 4 4 4 2 2 2 1 3 3 2 3 4
Wind_Direction
81 66 29 70 38 1 345 300 287 294 292 280 292 300 297 300 306 102 143 140 138 309 308 287 284 282 277 274 268 267 271 275 276 275 271 267 266 270 275 279 279 277 275
68 80 52 50 15 353 334 310 313 326 304 314 303 300 302 314 351 79 118 121 113 65 336 314 294 290 289 289 286 281 274 274 280 284 283 278 273 273 272 275 278 282 281
50 66 94 40 356 338 333 328 328 336 320 324 323 322 324 341 12 38 93 119 145 167 338 328 317 301 306 307 307 301 291 284 287 286 286 286 283 277 275 274 275 280 282
64 69 107 125 352 348 334 308 315 336 336 341 333 321 327 333 355 16 77 99 114 139 89 326 319 316 316 319 319 324 319 307 297 294 293 291 287 280 278 283 284 281 281
61 65 87 68 20 20 333 305 333 329 314 320 304 291 309 323 309 326 68 93 75 54 67 295 315 309 322 331 337 334 324 319 303 293 293 292 293 288 282 282 285 281 280
43 42 36 36 35 75 8 333 317 319 301 307 312 301 262 249 261 282 326 87 85 63 33 30 308 304 313 329 343 338 330 322 313 300 293 291 289 287 284 285 287 285 281
53 48 35 32 31 32 12 354 349 325 317 350 348 314 282 245 213 204 179 91 107 78 44 38 42 19 353 342 339 337 331 323 317 308 300 297 291 292 291 286 285 284 285
75 54 44 28 33 12 17 14 19 351 312 347 347 322 318 311 305 227 162 180 170 67 50 36 36 34 31 20 341 338 332 325 319 314 305 298 299 301 298 287 282 278 280
96 72 37 28 18 24 359 325 28 29 321 308 35 64 317 277 310 280 232 215 211 256 263 87 19 335 313 21 354 334 333 325 319 318 318 310 303 306 307 302 290 282 279
100 89 55 30 24 21 1 321 22 15 7 296 300 294 243 242 284 301 282 262 272 263 257 290 282 288 350 53 14 343 329 325 324 321 321 319 314 311 311 309 306 297 289
128 123 98 42 20 6 352 342 342 350 311 274 280 287 291 292 253 250 281 282 286 273 255 241 225 211 200 217 261 322 314 315 317 318 322 321 321 318 319 319 322 316 310
132 144 155 144 322 332 323 312 309 280 280 288 294 283 262 259 265 260 274 287 282 271 261 244 225 200 196 216 242 297 298 304 308 311 314 321 325 327 331 328 328 330 331
183 219 191 195 236 269 273 287 285 281 266 259 273 284 285 272 271 266 273 286 289 283 260 247 222 192 204 180 277 283 286 298 302 305 309 316 322 324 328 330 331 326 327
199 195 199 255 268 262 265 252 274 279 268 258 268 271 274 278 287 262 251 269 290 286 269 262 258 205 177 140 306 296 297 296 298 302 306 310 312 315 319 323 327 323 320
226 203 232 257 272 266 253 230 238 276 277 263 260 263 262 267 277 290 270 236 248 278 282 269 270 258 263 292 293 294 296 297 297 299 300 302 304 307 308 311 315 319 316
233 228 235 242 246 248 244 231 241 249 253 267 261 265 268 262 262 265 263 257 238 244 267 274 269 285 280 288 285 284 286 293 295 295 295 296 298 298 300 304 304 306 305
223 228 232 235 238 239 234 229 231 234 243 258 262 257 262 261 255 252 256 258 253 243 262 279 278 293 274 277 296 290 284 281 287 288 288 290 291 290 293 297 293 295 296
227 226 229 233 235 234 230 231 238 234 234 246 253 255 261 261 255 249 249 252 254 248 254 274 282 281 270 261 265 275 283 282 280 286 286 291 292 290 292 291 286 287 289
231 233 231 238 239 235 231 234 234 237 237 238 242 245 252 252 257 256 253 257 258 261 254 264 277 275 272 274 282 285 281 281 282 284 283 285 288 289 290 288 284 284 283
226 232 235 239 240 239 236 237 237 240 247 248 244 241 242 241 246 248 254 255 259 262 265 269 275 281 275 279 268 275 288 283 282 285 281 283 288 287 285 283 280 280 278
229 229 236 241 238 236 236 232 237 245 247 252 251 244 239 239 242 245 251 252 254 256 263 266 272 279 277 278 266 256 277 291 282 264 278 279 281 275 276 277 274 272 272
231 231 234 237 238 241 236 231 232 245 250 249 252 250 245 240 245 251 257 256 247 246 250 255 261 265 268 264 260 263 273 291 287 277 285 280 262 267 263 263 267 271 273
232 234 236 237 240 243 240 238 236 240 246 249 249 249 254 244 239 241 252 257 256 253 248 250 257 261 267 259 256 261 255 257 263 266 284 277 264 263 267 268 267 270 272
230 233 238 240 244 246 242 243 242 242 246 248 244 240 242 247 238 235 243 250 251 251 249 250 251 259 263 259 243 245 253 266 273 265 221 260 271 266 281 275 268 265 269
237 236 235 236 242 249 242 240 239 242 248 251 248 241 239 244 245 239 243 251 260 261 253 247 251 258 262 265 261 266 265 270 276 269 221 234 270 288 284 275 273 266 270
239 240 241 237 239 247 246 241 235 236 247 252 251 247 243 247 252 248 239 242 255 261 259 259 254 257 259 262 259 240 236 250 262 265 231 219 259 307 301 287 285 289 280
Height
1520 1521 1522 1523 1524 1524 1525 1525 1525 1525 1525 1525 1525 1525 1526 1526 1526 1526 1525 1525 1525 1525 1525 1525 1525 1525 1525 1525 1525 1525 1525 1525 1525 1525 1525 1525 1525 1525 1525 1525 1525 1525 1524
1519 1520 1521 1521 1522 1523 1523 1523 1524 1524 1524 1524 1524 1524 1524 1524 1524 1524 1523 1523 1523 1523 1522 1522 1522 1522 1523 1523 1523 1523 1522 1522 1522 1522 1522 1522 1522 1522 1521 1521 1521 1520 1520
1517 1518 1519 1519 1520 1521 1521 1522 1522 1522 1522 1522 1522 1522 1522 1522 1522 1522 1522 1521 1521 1521 1520 1520 1520 1520 1520 1520 1520 1520 1519 1519 1519 1519 1519 1519 1518 1518 1518 1517 1517 1516 1516
1515 1516 1517 1518 1518 1519 1519 1519 1520 1520 1520 1520 1520 1520 1520 1520 1520 1520 1520 1519 1519 1518 1518 1518 1518 1517 1517 1517 1517 1517 1517 1516 1516 1516 1516 1515 1515 1514 1513 1513 1513 1512 1512
1513 1514 1515 1516 1516 1517 1517 1518 1518 1518 1518 1518 1517 1517 1517 1517 1518 1518 1518 1517 1517 1516 1516 1516 1515 1515 1515 1515 1515 1514 1514 1514 1513 1513 1512 1512 1511 1511 1510 1509 1509 1508 1508
1511 1512 1513 1514 1514 1515 1515 1516 1516 1516 1516 1515 1515 1515 1515 1515 1515 1516 1516 1515 1515 1514 1514 1513 1513 1513 1513 1512 1512 1512 1511 1510 1510 1509 1509 1508 1508 1507 1506 1505 1505 1504 1504
1510 1510 1511 1512 1512 1513 1513 1513 1514 1514 1513 1514 1514 1513 1513 1513 1513 1514 1514 1513 1513 1512 1512 1511 1511 1511 1510 1510 1509 1509 1508 1507 1507 1506 1505 1504 1504 1503 1502 1501 1500 1500 1500
1508 1509 1509 1510 1510 1511 1511 1512 1512 1511 1511 1512 1512 1511 1511 1512 1511 1511 1511 1511 1511 1510 1510 1509 1509 1508 1508 1507 1507 1506 1505 1504 1504 1503 1501 1501 1500 1499 1498 1496 1495 1496 1495
1506 1507 1508 1508 1509 1509 1509 1509 1509 1509 1509 1510 1510 1511 1510 1509 1509 1509 1509 1509 1509 1508 1507 1507 1506 1506 1505 1504 1504 1503 1502 1501 1500 1499 1498 1497 1496 1495 1494 1493 1492 1492 1491
1504 1505 1506 1506 1506 1507 1507 1507 1507 1507 1507 1507 1508 1508 1509 1508 1508 1506 1506 1506 1506 1505 1505 1504 1503 1503 1502 1501 1500 1500 1499 1498 1497 1496 1495 1493 1492 1491 1490 1489 1488 1487 1487
1502 1503 1503 1504 1504 1504 1504 1504 1504 1505 1505 1505 1505 1505 1505 1506 1506 1505 1503 1503 1503 1502 1502 1501 1501 1500 1499 1498 1497 1497 1496 1495 1494 1493 1491 1490 1489 1488 1486 1485 1484 1483 1483
1500 1501 1501 1501 1501 1501 1502 1502 1502 1502 1502 1502 1502 1502 1502 1502 1502 1502 1501 1500 1499 1498 1498 1498 1497 1496 1496 1495 1494 1493 1492 1491 1490 1489 1488 1486 1485 1484 1483 1482 1481 1480 1479
1498 1499 1499 1498 1498 1498 1499 1498 1498 1499 1499 1499 1499 1499 1499 1499 1500 1499 1499 1497 1496 1495 1494 1494 1494 1493 1492 1491 1490 1489 1488 1487 1486 1485 1484 1483 1481 1480 1479 1478 1477 1476 1476
1496 1496 1496 1496 1495 1496 1495 1495 1495 1495 1495 1496 1496 1496 1495 1496 1496 1496 1496 1495 1493 1491 1490 1490 1490 1489 1489 1488 1487 1486 1485 1484 1482 1481 1480 1479 1478 1477 1476 1474 1473 1472 1472
1493 1493 1493 1493 1493 1493 1492 1492 1492 1492 1492 1492 1492 1492 1492 1492 1492 1492 1492 1492 1492 1489 1486 1486 1486 1485 1485 1484 1483 1482 1481 1480 1478 1477 1476 1475 1474 1473 1472 1471 1470 1469 1468
1490 1490 1490 1489 1489 1489 1489 1488 1489 1489 1489 1489 1489 1488 1488 1488 1488 1488 1488 1487 1487 1486 1484 1482 1482 1482 1481 1480 1479 1477 1476 1475 1474 1473 1472 1471 1470 1469 1468 1466 1465 1465 1464
1487 1487 1486 1486 1486 1486 1485 1485 1485 1485 1485 1485 1484 1484 1484 1484 1483 1484 1483 1483 1483 1482 1480 1478 1478 1478 1476 1475 1474 1473 1472 1471 1470 1469 1468 1467 1465 1464 1463 1462 1461 1460 1459
1484 1483 1483 1482 1482 1482 1482 1482 1481 1481 1480 1480 1480 1480 1480 1480 1479 1479 1479 1478 1478 1477 1476 1474 1473 1473 1472 1471 1470 1468 1467 1466 1465 1464 1463 1462 1461 1460 1458 1457 1456 1455 1455
1480 1479 1479 1478 1478 1478 1478 1478 1477 1477 1477 1476 1476 1476 1476 1475 1475 1474 1474 1474 1473 1472 1471 1470 1468 1468 1467 1466 1465 1464 1463 1462 1461 1460 1459 1458 1457 1455 1454 1453 1452 1451 1450
1475 1475 1475 1474 1474 1474 1474 1473 1473 1473 1472 1472 1471 1471 1471 1471 1470 1470 1469 1469 1468 1468 1467 1466 1464 1463 1462 1461 1460 1459 1458 1457 1456 1455 1454 1454 1452 1451 1450 1449 1447 1446 1446
1471 1470 1470 1470 1469 1469 1469 1469 1469 1468 1468 1467 1467 1466 1466 1466 1465 1465 1465 1464 1464 1463 1462 1461 1459 1458 1457 1457 1456 1454 1453 1452 1451 1450 1449 1449 1448 1446 1445 1444 1443 1442 1441
1466 1466 1465 1465 1465 1465 1464 1464 1464 1463 1463 1462 1462 1461 1461 1461 1460 1460 1460 1460 1459 1458 1457 1456 1455 1454 1453 1453 1452 1450 1449 1448 1446 1446 1444 1443 1443 1441 1440 1439 1438 1437 1436
1461 1461 1461 1460 1460 1460 1460 1459 1458 1458 1457 1457 1457 1456 1456 1455 1455 1455 1454 1454 1454 1453 1453 1452 1450 1449 1449 1448 1447 1446 1445 1443 1442 1441 1440 1437 1437 1436 1435 1434 1433 1433 1432
1456 1456 1455 1455 1455 1455 1454 1454 1453 1453 1452 1452 1452 1451 1451 1450 1450 1450 1449 1448 1448 1447 1447 1446 1445 1444 1444 1443 1443 1442 1440 1439 1438 1437 1436 1433 1432 1431 1430 1429 1428 1428 1427
1451 1451 1450 1450 1449 1449 1449 1449 1448 1447 1446 1446 1446 1446 1445 1445 1445 1444 1444 1442 1442 1441 1441 1440 1440 1439 1439 1438 1438 1437 1435 1434 1432 1431 1431 1429 1427 1426 1425 1424 1423 1423 1422
1445 1445 1444 1444 1444 1443 1443 1443 1443 1442 1441 1440 1440 1440 1440 1439 1439 1438 1438 1437 1436 1435 1435 1434 1434 1433 1433 1432 1432 1431 1431 1429 1428 1426 1426 1425 1423 1422 1420 1419 1419 1418 1418